Regional Weather Roundup
Issued by NWS

Home | Current Version | Previous Version | Graphics & Text | Print | Product List | Glossary On
Versions: 1 2 3 4 5 6 7 8 9 10 11 12 13 14 15 16 17 18 19 20 21 22 23 24 25 26 27 28 29 30 31 32 33 34 35 36 37 38 39 40 41 42 43 44 45 46 47 48 49 50
000
ASUS43 KFSD 030210
RWRSD

WEATHER ROUNDUP FOR SOUTH DAKOTA
NATIONAL WEATHER SERVICE SIOUX FALLS SD
900 PM CDT SUN AUG 02 2015

NOTE: "FAIR" INDICATES FEW OR NO CLOUDS BELOW 12,000 FEET WITH NO
SIGNIFICANT WEATHER AND/OR OBSTRUCTIONS TO VISIBILITY.


SDZ001>005-009-010-012>017-030300-
NORTHWEST AND NORTH CENTRAL SOUTH DAKOTA

CITY           SKY/WX    TMP DP  RH WIND       PRES   REMARKS
BUFFALO          N/A     75  50  41 NE10      29.95R
FAITH            N/A     75  48  38 NE8       29.97R
MOBRIDGE       CLEAR     72  58  61 NE5       29.91R
$$

SDZ012>016-024>037-041>051-057-063-072>074-030300-
SOUTHWEST AND SOUTH CENTRAL SOUTH DAKOTA

CITY           SKY/WX    TMP DP  RH WIND       PRES   REMARKS
RAPID CTY ARPT CLEAR     74  56  53 NE10      29.99R
PIERRE         CLEAR     74  54  49 N7        29.90R
CUSTER         CLEAR     69  49  48 NE7       30.14R
ELLSWORTH AFB  CLEAR     79  53  39 E8        29.99R
PHILIP         CLEAR     74  60  61 E7        29.94R
PINE RIDGE     CLEAR     75  58  55 E9        29.97R
WINNER         FAIR      77  59  53 E7        29.93R
$$

SDZ004>011-016>023-039-040-030300-
NORTHEAST SOUTH DAKOTA

CITY           SKY/WX    TMP DP  RH WIND       PRES   REMARKS
ABERDEEN       CLEAR     74  59  59 NE3       29.89R
WATERTOWN      CLEAR     68  56  65 N6        29.89R
BROOKINGS      CLEAR     68  57  68 NW5       29.91R
SISSETON         N/A     64  57  78 N7        29.86R
$$

SDZ017-020-022-023-036>040-048>070-030300-
SOUTHEAST SOUTH DAKOTA

CITY           SKY/WX    TMP DP  RH WIND       PRES   REMARKS
SIOUX FALLS    CLEAR     71  61  70 N8        29.88R
HURON          CLEAR     73  60  63 NE5       29.89R
CHAMBERLAIN    CLEAR     76  60  59 E5        29.92R
MITCHELL       CLEAR     71  62  73 NE5       29.90R
YANKTON        CLEAR     75  64  69 N7        29.86R
$$

ABBREVIATIONS USED IN REMARKS
   TC - TEMPERATURE IN CELSIUS
  WCI - WIND CHILL INDEX
   HX - HEAT INDEX
  VSB - VISIBILITY




USA.gov is the U.S. government's official web portal to all federal, state and local government web resources and services.